パンスターズ彗星

347P/PanSTARRS (2016)

English version
Home page
Updated on March 3, 2018

---------------------------------------------------------------------

・ プロフィール

符号 347P/2016 SV
発見日 2016年9月21日
発見光度 19.3等
発見者 Pan-STARRS 1 telescope (Haleakala)

・ 写真集

・ 軌道要素

Epoch 2016 Sept. 9.0 TT = JDT 2457640.5
T 2016 Sept. 11.39764 TT                                MPCW
q   2.2239903            (2000.0)            P               Q
n   0.14353556     Peri.   98.44984     +0.97950827     +0.01181371
a   3.6126818      Node   261.04737     -0.08517832     +0.92890445
e   0.3843935      Incl.   11.74386     +0.18250535     +0.37013100
P   6.87
From 137 observations 2002 July 12-2018 Jan. 24, mean residual 0".5.

・ 光度変化

        m1 = 9.0 + 5 logΔ + 25.0 log r(t - 100)

---------------------------------------------------------------------

軌道要素はM.P.E.C. 2018-B155に掲載されたものです。
光度グラフはComet for Windowsで作成したものです。

---------------------------------------------------------------------

Copyright(C) Seiichi Yoshida (comet@aerith.net). All rights reserved.